Location: Port-Aux-Quilles Astronomical Observatory
(47.9769°N, 69.9642°W)
Time: 14:19:34
(UTC-05:00)

Envisat - Pass Details

Date: 23 October 2019
Orbit: 764 x 766 km, 98.1° (Epoch: 18 November)

Event Time Altitude Azimuth Distance (km) Brightness Sun altitude
Rises 19:59:33 0° 210° (SSW) 3,222 6.5 -24.5°
Reaches altitude 10° 20:02:36 10° 229° (SW) 2,301 5.9 -25.0°
Maximum altitude 20:05:57 18° 271° (W) 1,836 5.8 -25.5°
Drops below altitude 10° 20:09:19 10° 313° (NW) 2,313 6.2 -26.1°
Sets 20:12:25 0° 332° (NNW) 3,244 6.8 -26.6°
